{"data":{"norad_id":51779,"intl_designator":"2022-017M","name":"STARLINK-3611","alt_names":[],"object_type":"PAYLOAD","status":"ACTIVE","operator":null,"country":"US","launch_date":"2022-02-25","launch_site_code":"AFWTR","launch_vehicle":null,"mission":null,"orbit_class":"UNKNOWN","rcs_meters":null,"size_class":null,"mass_kg":null,"dimensions":null,"purposes":["comms"],"wikipedia_slug":null,"has_3d_model":false,"image_url":null,"decayed_at":null,"tle_current":{"epoch":"2026-09-19T11:11:34.418976Z","epoch_age_seconds":140965,"freshness":"FRESH","line1":"1 51779U 22017M   26262.46637059  .00000711  00000+0  31297-4 0  9993","line2":"2 51779  53.1595 176.5789 0001184  97.7422 262.3715 15.35394182251990","mean_motion":15.35394182,"eccentricity":0.0001184,"inclination_deg":53.1595,"raan_deg":176.5789,"arg_perigee_deg":97.7422,"mean_anomaly_deg":262.3715,"bstar":3.1297e-5,"rev_number":25199,"period_min":93.786990785927,"perigee_km":458.9403105402,"apogee_km":460.55952216199,"semimajor_km":6837.8869163511,"source":"CELESTRAK","updated_at":"2026-09-20T09:00:39.938168Z"}}}